Regional Weather Roundup
Issued by NWS Charleston, SC

Home | Current Version | Previous Version | Text Only | Print | Product List | Glossary On
Versions: 1 2 3 4 5 6 7 8 9 10 11 12 13 14 15 16 17 18 19 20 21 22 23 24 25 26 27 28 29 30 31 32 33 34 35 36 37 38 39 40 41 42 43 44 45 46 47 48 49 50
000
ASUS42 KCHS 100112
RWRCHS

REGIONAL WEATHER ROUNDUP
NATIONAL WEATHER SERVICE CHARLESTON SC
800 PM EST FRI DEC 09 2016

NOTE: "FAIR" INDICATES FEW OR NO CLOUDS BELOW 12,000 FEET WITH NO
SIGNIFICANT WEATHER AND/OR OBSTRUCTIONS TO VISIBILITY.

NOT ALL STATIONS ARE QUALITY CONTROLLED. USE DATA WITH CAUTION...
ESPECIALLY DEWPOINT OBSERVATIONS.

SCZ027-030-031-034>040-042>050-100200-
...SOUTHEAST SOUTH CAROLINA...

CITY           SKY/WX    TMP DP  RH WIND       PRES   REMARKS
N CHARLESTON   CLEAR     40  26  57 NE5       30.45R WCI  37
WATERFRONT PRK   N/A     45  28  51 N7        30.43S
MOUNT PLEASANT NOT AVBL
JOHNS ISLAND   FAIR      39  27  60 CALM      30.45R
PINOPOLIS        N/A     45  25  45 NE12      30.38R
MONCKS CORNER  FAIR      34  25  69 CALM      30.45R
SUMMERVILLE    FAIR      34  32  93 CALM      30.46R
BEAUFORT MCAS  CLEAR     39  27  62 NE7       30.45R WCI  34
BEAUFORT ARPT  FAIR      41  30  65 N9        30.44R
HILTON HEAD IS CLEAR     45  23  42 N7        30.45R
WALTERBORO     CLEAR     34  30  86 CALM      30.46R
ALLENDALE      FAIR      34  30  86 CALM      30.45R

...SOUTHERN MIDLANDS AND PEE DEE...

CITY           SKY/WX    TMP DP  RH WIND       PRES   REMARKS
GEORGETOWN     NOT AVBL
KINGSTREE      FAIR      32  27  80 CALM      30.45S
ORANGEBURG     CLEAR     34  26  72 CALM      30.45R
BARNWELL       NOT AVBL
AIKEN          FAIR      32  27  80 CALM      30.48R
MANNING        NOT AVBL
COLUMBIA       CLEAR     33  25  72 CALM      30.45R
SUMTER         CLEAR     33  23  66 CALM      30.43R
FLORENCE       CLEAR     32  23  69 N3        30.46R
MYRTLE BEACH   CLEAR     36  25  64 CALM      30.47R
N MYRTLE BEACH CLEAR     32  28  85 CALM      30.45R

$$

GAZ063-065-086>088-099>101-113>116-118-119-134>141-150-100200-
...SOUTHEAST GEORGIA...

CITY           SKY/WX    TMP DP  RH WIND       PRES   REMARKS
SAVANNAH ARPT  PTCLDY    38  29  70 CALM      30.45R
HUNTER AAF     CLEAR     41  30  65 CALM      30.41R
FORT STEWART   CLEAR     36  29  75 CALM      30.42R
STATESBORO     PTCLDY    34  33  95 CALM      30.45R
SYLVANIA       PTCLDY   N/A N/A N/A CALM      30.45R
CLAXTON        FAIR      35  34  94 CALM      30.45R

...CSRA...CENTRAL AND FAR SOUTHEAST GEORGIA...

CITY           SKY/WX    TMP DP  RH WIND       PRES   REMARKS
THOMSON        CLEAR     33  30  88 CALM      30.49R
AUGUSTA-BUSH   CLEAR     33  25  72 W3        30.46R
AUGUSTA-DANIEL CLEAR     42  18  37 NE3       30.45R
SWAINSBORO     FAIR      32  28  86 CALM      30.46R
VIDALIA        CLEAR     37  32  81 NE3       30.45R
EASTMAN        FAIR      33  21  63 CALM      30.47S
HAZLEHURST     FAIR      38  28  66 CALM      30.43S
ALMA           CLEAR     40  28  62 N7        30.43R WCI  35
WAYCROSS       CLEAR     40  33  77 N6        30.43R WCI  35
JESUP          FAIR      41  32  70 N5        30.44R
BAXLEY         FAIR      37  34  87 CALM      30.44R
BRUNSWICK      CLEAR     45  32  61 CALM      30.44R
SAINT SIMONS   CLEAR     45  29  53 N5        30.43R

$$

SCZ027-028-034-036>038-045-046-048>050-GAZ119-141-100200-
...LAKE AND SUPPLEMENTAL COASTAL OBSERVATIONS...

STATION/POSITION TIME  TEMP    WIND        PRES    WAVE   SWELL
                       AIR SEA DIR/SP/G            HT/PER HT/PER/DIR
                 (UTC) (F)     (DEG/KT/KT) (MB)    (FT/S) (FT/S/D)
WINYAH BAY       NOT AVBL
LAKE MURRAY      0020   40      CALM  /  1 1030.1
ACE BASIN NERRS  2345   38        CALM     1030.0
FORT PULASKI     0048   45 60  360/  6/  7 1030.7R
SAPELO ISLAND    0000   48     350/  9     1030.0

$$

ANZ835-935-AMZ111-154-330-350-352-354-370-450-454-472-100200-
...C-MAN AND BUOY OBSERVATIONS...

STATION/POSITION TIME  TEMP    WIND        PRES    WAVE   SWELL
                       AIR SEA DIR/SP/G            HT/PER HT/PER/DIR
                 (UTC) (F)     (DEG/KT/KT) (MB)    (FT/S) (FT/S/D)
BUOY 41004       2350   50 72  350/ 16/ 21 1029.1    4/ 6   2/ 70/ 7
BUOY 41008       2350   53 63  360/ 12/ 17 1029.3    3/ 7   2/ 80/ 7
FOLLY BEACH CMAN 0000   44     350/  7/  9 1031.1R
CAPERS NEARSHORE NOT AVBL
FRIPP NEARSHORE  0008   49 60   10/ 12/ 16 1030.3R


STATION/POSITION TIME  TEMP    WIND        PRES    WAVE   SWELL
                       AIR SEA DIR/SP/G            HT/PER HT/PER/DIR
                 (UTC) (F)     (DEG/KT/KT) (MB)    (FT/S) (FT/S/D)
5E ST. MARYS GA  0100      64                N/A     3/ 6
FRYING PAN BUOY  0050   47 72  340/ 14/ 19 1030.3R   3/ 8   2/ 80/ 8
BUOY 41025       0050   43 77  350/ 17/ 23 1029.3R   5/ 9   3/ 60/ 9
CAPE LOOKOUT NC  0000   40     340/ 13/ 16 1029.4R
BUOY 41002       2350   59 73  350/ 16/ 23 1025.7    6/ 8   3/ 10/ 8
BUOY 41010       NOT AVBL
ST AUGUSTINE FL  0000   55 65   10/ 17/ 19 1029.2R


$$




USA.gov is the U.S. government's official web portal to all federal, state and local government web resources and services.